Regional Weather Roundup
Issued by NWS

Home | Current Version | Previous Version | Graphics & Text | Print | Product List | Glossary On
Versions: 1 2 3 4 5 6 7 8 9 10 11 12 13 14 15 16 17 18 19 20 21 22 23 24 25 26 27 28 29 30 31 32 33 34 35 36 37 38 39 40 41 42 43 44 45 46 47 48 49 50
000
ASUS45 KSLC 031710
RWRUT

UTAH REGIONAL WEATHER ROUNDUP
NATIONAL WEATHER SERVICE SALT LAKE CITY UT
1000 AM MST TUE MAR 03 2015

UTZ001>011-023>025-031800-

NORTHERN UTAH

CITY           SKY/WX    TMP DP  RH WIND       PRES   REMARKS
BRIGHAM CITY   CLOUDY    32  27  81 N13G18    29.85R WCI  22
HILL AFB       LGT SNOW  28  28 100 NW9       29.83R FOG     WCI  20
LOGAN          CLOUDY    30  25  81 N14       29.84R WCI  19
OGDEN          LGT SNOW  31  30  96 NW5       29.83R FOG     WCI  26
PROVO AIRPORT  LGT SNOW  37  28  70 SW15G21   29.82R WCI  28
SALT LAKE CITY SNOW      31  30  96 N14       29.86R VSB 1/4 WCI  21
VERNAL         MOSUNNY   30  26  85 N3        29.78F
WENDOVER       MOSUNNY   36  21  55 NW14G21   29.90R WCI  27
HEBER CITY     LGT SNOW  34  28  80 CALM      29.74S
WEST JORDAN    CLOUDY    28  28 100 W14G22    29.85R VSB 1/4 WCI  17

$$

UTZ012>022-026-027-031800-

SOUTHERN/CENTRAL UTAH

CITY           SKY/WX    TMP DP  RH WIND       PRES   REMARKS
BLANDING       CLOUDY    32  30  92 SE3       29.94S
BRYCE CANYON   SUNNY     12   9  87 SW5       29.84R WCI   4
CEDAR CITY     CLOUDY    31  28  89 SE3       29.86R
DELTA          CLOUDY    33  30  89 SW6       29.85R WCI  28
HANKSVILLE     SUNNY     41  28  60 W3        29.85S
MILFORD        CLOUDY    34  28  79 S15       29.84R WCI  24
MOAB/CYNLANDS  SUNNY     41  28  60 E3        29.80F
PRICE          MOSUNNY   31  25  78 E3        29.78F
ST GEORGE      CLOUDY    43  36  75 CALM      29.96R
KANAB          PTSUNNY   34  32  93 S6        29.94R WCI  29

$$

REGIONAL REPORTS     COLORADO/ARIZONA

CITY           SKY/WX    TMP DP  RH WIND       PRES   REMARKS
CRAIG, CO      LGT SNOW  28  24  85 NE6       29.76F FOG     WCI  22
GRAND JUNCTION FLURRIES  38  29  70 NW6       29.81S WCI  33
RIFLE          PTSUNNY   41  28  60 VRB3      29.79F
MONTROSE       CLOUDY    37  23  56 S7        29.84F WCI  32
CORTEZ         CLOUDY    38  27  64 CALM      29.88S
PAGE, AZ       CLOUDY    41  30  65 CALM      29.88
GRAND CANYON   PTSUNNY   28  25  88 SW7       29.90F WCI  21
KINGMAN        SUNNY     45  35  68 W5        29.94R
FLAGSTAFF      NOT AVBL

$$

REGIONAL REPORTS    NEVADA/IDAHO/WYOMING

CITY           SKY/WX    TMP DP  RH WIND       PRES   REMARKS
LAS VEGAS, NV  MOSUNNY   51  36  56 CALM      29.91R
ELY            LGT SNOW  27  25  92 NE18      29.87R VSB 3/4 WCI  14
ELKO           MOSUNNY   28  14  55 N13       29.95R WCI  17
POCATELLO, ID  MOSUNNY   23  15  71 NE15      29.92R WCI  10
BURLEY         HVY SNOW  25  21  85 W14G23    29.91R VSB 1/4 WCI  13
EVANSTON, WY   SNOW      23  21  92 NW13      29.72R VSB 1/2 WCI  11
ROCK SPRINGS   SNOW      13   9  84 NE14      29.74S VSB 1/4 WCI  -2
KEMMERER       CLOUDY    27  19  74 W15       29.70S WCI  15

$$



USA.gov is the U.S. government's official web portal to all federal, state and local government web resources and services.